Regional Weather Roundup
Issued by NWS

Home | Current Version | Previous Version | Graphics & Text | Print | Product List | Glossary On
Versions: 1 2 3 4 5 6 7 8 9 10 11 12 13 14 15 16 17 18 19 20 21 22 23 24 25 26 27 28 29 30 31 32 33 34 35 36 37 38 39 40 41 42 43 44 45 46 47 48 49 50
000
ASUS43 KLOT 270607
RWRIL

ILLINOIS REGIONAL WEATHER ROUNDUP
NATIONAL WEATHER SERVICE CHICAGO/ROMEOVILLE IL
100 AM CDT THU APR 27 2017

NOTE: "FAIR" INDICATES FEW OR NO CLOUDS BELOW 12,000 FEET WITH NO
SIGNIFICANT WEATHER AND/OR OBSTRUCTIONS TO VISIBILITY.

* THESE STATIONS ARE NOT UNDER NWS QUALITY CONTROL. THEY ALSO MAY NOT
  REPORT WEATHER SUCH AS PRECIPITATION OR FOG.

ILZ001-002-007-009-015-016-024-270700-
NORTHWEST ILLINOIS

CITY           SKY/WX    TMP DP  RH WIND       PRES   REMARKS
MOLINE         RAIN      45  41  86 NW13G22   29.47S FOG
6HR MIN TEMP:  45; 6HR MAX TEMP:  51; 6HR PCP:  0.23;

STERLING*      LGT RAIN  48  47  96 NW7       29.43F FOG
SAVANNA*       RAIN      45  43  93 NW9       29.45F
$$

ILZ003-004-008-010-011-017-018-270700-
NORTH CENTRAL ILLINOIS

CITY           SKY/WX    TMP DP  RH WIND       PRES   REMARKS
ROCKFORD       LGT RAIN  51  48  89 N7        29.43F FOG
6HR MIN TEMP:  51; 6HR MAX TEMP:  56; 6HR PCP:  0.11;

FREEPORT*      DRIZZLE   46  46  97 NW7       29.45F
ROCHELLE*      RAIN      50  50  98 NW9       29.41F
DE KALB*       RAIN      52  51  97 N5        29.41F
PERU*          DRIZZLE   50  49  95 N7        29.41F
$$

ILZ005-006-012>014-019>023-270700-
NORTHEAST ILLINOIS

CITY           SKY/WX    TMP DP  RH WIND       PRES   REMARKS
CHICAGO-OHARE  LGT RAIN  61  59  93 S9        29.39F FOG
6HR MIN TEMP:  60; 6HR MAX TEMP:  67; 6HR PCP:  0.21;

CHICAGO-MIDWAY LGT RAIN  62  59  90 SE12      29.41F
6HR MIN TEMP:  62; 6HR MAX TEMP:  71; 6HR PCP:  0.26;

AURORA         LGT RAIN  56  55  97 CALM      29.40F FOG
6HR MIN TEMP:  56; 6HR MAX TEMP:  62; 6HR PCP:  0.17;

LANSING*       LGT RAIN  59  59 100 S8        29.44S
JOLIET*        RAIN      60  60  97 SE6       29.41F
WAUKEGAN       LGT RAIN  57  57 100 E6        29.40F FOG
6HR MIN TEMP:  57; 6HR MAX TEMP:  65; 6HR PCP:  0.16;

DUPAGE AIRPORT RAIN      59  59 100 SE6       29.38F FOG
6HR MIN TEMP:  57; 6HR MAX TEMP:  64; 6HR PCP:  0.21;

KANKAKEE*      LGT RAIN  59  58  97 SE9       29.44F
WHEELING       LGT RAIN  60  60 100 SE6       29.40F
6HR MIN TEMP:  59; 6HR MAX TEMP:  65; 6HR PCP:  0.19;

MORRIS*        LGT RAIN  59  58  95 S8        29.39F
ROMEOVILLE*    RAIN      59  59 100 S12       29.40F
NORTHERLY ISL    N/A     55  53  93 S3          N/A
$$

LMZ740>746-270700-
SOUTHERN LAKE MICHIGAN

STATION/POSITION SKY/WX   TEMP    WIND        PRES    VSBY  WAVE
                          AIR SEA DIR/SP/G                  HT/PER
                          (F)     (DEG/KT/KT) (MB)    (MI)  (FT/S)
SOUTHERN BUOY              52 42  130/  2/  2  997.4          1
HARRISON CRIB              56     130/ 15/ 15   N/A
BURNHAM HARBOR             55      CALM  /  7   N/A
CALUMET HARBOR             60     170/  5/  9  996.3F
BURNS HARBOR               61     170/  5/  9  998.0F
MICHIGAN CITY              60     130/  6/  7   N/A
MICHIGAN CITY 6N           55 49                N/A           0
ST. JOSEPH                 54 49  140/  6/  8  997.6          1
$$

ILZ025>027-034>036-040-047-049-050-058-095>099-270700-
WEST-CENTRAL ILLINOIS

CITY           SKY/WX    TMP DP  RH WIND       PRES   REMARKS
QUINCY         RAIN      45  43  93 NW18G28   29.53R FOG
GALESBURG*     RAIN      45  44  99 NW12      29.45F
MACOMB*        MIX PCPN  45  44  98 NW15      29.51R
JACKSONVILLE*  LGT RAIN  47  47  97 NW18      29.44S
PITTSFIELD*    RAIN      47  46  96 W14       29.51R
$$

ILZ028>032-037-038-041>044-048-051>054-059>061-270700-
CENTRAL ILLINOIS

CITY           SKY/WX    TMP DP  RH WIND       PRES   REMARKS
PONTIAC        LGT RAIN  60  60  98 S12       29.42R
BLOOMINGTON    LGT RAIN  58  57  97 S21       29.40F
DECATUR        LGT RAIN  59  58  96 SE24G31   29.41F
PEORIA         RAIN      50  50 100 N9        29.41F FOG
6HR MIN TEMP:  50; 6HR MAX TEMP:  56; 6HR PCP:  0.18;

LACON*         RAIN      50  50 100 N6        29.40F
LINCOLN*       LGT RAIN  60  59  97 S16       29.39F
SPRINGFIELD    CLOUDY    61  59  93 SE12G21   29.38F
6HR MIN TEMP:  60; 6HR MAX TEMP:  63; 6HR PCP:  0.39;

TAYLORVILLE    DRIZZLE   58  57  95 S12G22    29.38R
6HR MIN TEMP:  58; 6HR MAX TEMP:  61; 6HR PCP:  0.45;

$$

ILZ033-039-045-046-055>057-062-063-270700-
EAST-CENTRAL ILLINOIS

CITY           SKY/WX    TMP DP  RH WIND       PRES   REMARKS
CHAMPAIGN      LGT RAIN  60  57  89 S22G31    29.45F
RANTOUL*       RAIN      61  60  97 S18       29.45F
MATTOON        LGT RAIN  59  59 100 S9G21     29.48F
PARIS*         LGT RAIN  60  59  96 S16       29.52S
$$

ILZ079-100>102-270700-
SOUTHWEST ILLINOIS

CITY           SKY/WX    TMP DP  RH WIND       PRES   REMARKS
ALTON          RAIN      49  48  94 W21G26    29.48R
BELLEVILLE     HVY RAIN  50  50 100 SW8       29.47R FOG
CAHOKIA*       RAIN      50  47  89 W10       29.51R FOG
SPARTA*        RAIN      52  48  87 W17G28    29.51R
$$

ILZ064>066-069>071-074>076-080>082-084>086-088>090-092>094-270700-
SOUTH-CENTRAL ILLINOIS

CITY           SKY/WX    TMP DP  RH WIND       PRES   REMARKS
CARBONDALE     MOCLDY    59  58  96 S7        29.47R
6HR MIN TEMP:  58; 6HR MAX TEMP:  60; 6HR PCP:  0.80;

CAIRO*         CLOUDY    60  58  91 S12G18    29.51R
EFFINGHAM*     RAIN      59  59 100 E16       29.46F
MARION         CLOUDY    61  59  94 S6        29.47R
MT. VERNON     CLOUDY    59  58  96 E8        29.44F
CENTRALIA*     CLOUDY    60  59  98 SE12      29.43R
SALEM*         CLOUDY    60  58  91 SE8       29.44F
METROPOLIS*    CLOUDY    61  58  91 S5G16     29.51R
$$

ILZ067-068-072-073-078-083-087-091-270700-
SOUTHEAST ILLINOIS

CITY           SKY/WX    TMP DP  RH WIND       PRES   REMARKS
LAWRENCEVILLE  LGT RAIN  60  60 100 S10       29.57S
FLORA*         RAIN      60  59  96 E14       29.46F
FAIRFIELD*     LGT RAIN  59  59 100 E7        29.45F
HARRISBURG*    CLOUDY    61  58  89 S6G17     29.48F
ROBINSON*      LGT RAIN  59  58  98 S9        29.55F
CARMI*         HVY RAIN  59  59  99 SE25G31   29.52F
$$

ABBREVIATIONS USED IN REMARKS
   TC - TEMPERATURE IN CELSIUS
  WCI - WIND CHILL INDEX
   HX - HEAT INDEX
  VSB - VISIBILITY
$$




USA.gov is the U.S. government's official web portal to all federal, state and local government web resources and services.